Weather History for Georgetown, TX

Change the Weather History Date:

Saturday, September 7, 2013

  Actual Average Record
Temperature  
Mean Temperature 84 °F -  
Max Temperature 96 °F 89 °F 98 °F (2012)
Min Temperature 71 °F 67 °F 55 °F (2011)
Cooling Degree Days 18    
Growing Degree Days 34 (Base 50)    
Moisture  
Dew Point 70 °F    
Average Humidity 76    
Maximum Humidity 94    
Minimum Humidity 34    
Precipitation  
Precipitation 0.00 in - - ()
Sea Level Pressure  
Sea Level Pressure 30.01 in    
Wind  
Wind Speed 3 mph (SSE)    
Max Wind Speed 21 mph    
Max Gust Speed 34 mph    
Visibility 10 miles    
Events      
Averages and records for this station are not official NWS values.
T = Trace of Precipitation, MM = Missing Value Source: NWS Daily Summary

Daily Weather History Graph

Daily Weather History Graph

Search for Another Location

Airport:

Trip Planner

Search our weather history database for the weather conditions in past years. The results will help you decide how hot, cold, wet, or windy it might be!

Date:

Astronomy

Sep. 07, 2013 Rise Set
Actual Time 7:10 AM CDT 7:45 PM CDT
Civil Twilight 6:46 AM CDT 8:10 PM CDT
Nautical Twilight 6:17 AM CDT 8:38 PM CDT
Astronomical Twilight 5:48 AM CDT 9:07 PM CDT
Moon 9:13 AM CDT (9/7) 9:00 PM CDT (9/7)
Length of Visible Light 13h 23m
Length of Day
12h 35m
Waxing Crescent, 5% of the Moon is Illuminated
Sep 7
Waxing Crescent
Sep 12
First Quarter
Sep 19
Full
Sep 26
Last Quarter
Oct 4
New

Hourly Weather History & Observations

Time (CDT) Temp. Heat Index Dew Point Humidity Pressure Visibility Wind Dir Wind Speed Gust Speed Precip Events Conditions
12:15 AM 80.6 °F 83.9 °F 69.8 °F 70% 30.02 in 10.0 mi SSE 4.6 mph - N/A   Clear
12:35 AM 80.6 °F 83.9 °F 69.8 °F 70% 30.02 in 10.0 mi SSE 3.5 mph - N/A   Clear
12:55 AM 80.6 °F 83.9 °F 69.8 °F 70% 30.02 in 10.0 mi SSE 4.6 mph - N/A   Clear
1:15 AM 78.8 °F - 71.6 °F 78% 30.01 in 10.0 mi SSW 3.5 mph - N/A   Clear
1:35 AM 78.8 °F - 71.6 °F 78% 30.02 in 10.0 mi Calm Calm - N/A   Clear
1:55 AM 78.8 °F - 69.8 °F 74% 30.01 in 10.0 mi Calm Calm - N/A   Clear
2:15 AM 75.2 °F - 69.8 °F 83% 30.01 in 10.0 mi Calm Calm - N/A   Clear
2:35 AM 75.2 °F - 71.6 °F 89% 30.01 in 10.0 mi Calm Calm - N/A   Clear
2:55 AM 75.2 °F - 69.8 °F 83% 30.01 in 10.0 mi Calm Calm - N/A   Clear
3:15 AM 75.2 °F - 69.8 °F 83% 30.01 in 10.0 mi Calm Calm - N/A   Clear
3:35 AM 73.4 °F - 69.8 °F 88% 30.00 in 10.0 mi Calm Calm - N/A   Clear
3:55 AM 75.2 °F - 69.8 °F 83% 30.01 in 10.0 mi SE 3.5 mph - N/A   Clear
4:15 AM 75.2 °F - 71.6 °F 89% 30.01 in 10.0 mi Calm Calm - N/A   Clear
4:35 AM 75.2 °F - 71.6 °F 89% 30.01 in 10.0 mi Calm Calm - N/A   Clear
4:55 AM 75.2 °F - 71.6 °F 89% 30.02 in 10.0 mi Calm Calm - N/A   Clear
5:15 AM 73.4 °F - 69.8 °F 88% 30.02 in 10.0 mi Calm Calm - N/A   Clear
5:35 AM 73.4 °F - 71.6 °F 94% 30.01 in 10.0 mi Calm Calm - N/A   Clear
5:55 AM 73.4 °F - 69.8 °F 88% 30.02 in 10.0 mi Calm Calm - N/A   Clear
6:15 AM 71.6 °F - 69.8 °F 94% 30.02 in 10.0 mi Calm Calm - N/A   Clear
6:35 AM 73.4 °F - 69.8 °F 88% 30.03 in 10.0 mi Calm Calm - N/A   Clear
6:53 AM 73.4 °F - 69.8 °F 88% 30.03 in 10.0 mi Calm Calm - N/A   Clear
6:55 AM 73.4 °F - 69.8 °F 88% 30.03 in 10.0 mi Calm Calm - N/A   Clear
7:48 AM 73.4 °F - 71.6 °F 94% 30.04 in 10.0 mi Calm Calm - N/A   Clear
8:46 AM 78.8 °F - 73.4 °F 83% 30.06 in 10.0 mi Calm Calm - N/A   Clear
9:48 AM 82.4 °F 88.2 °F 73.4 °F 74% 30.06 in 10.0 mi Calm Calm - N/A   Partly Cloudy
10:46 AM 84.2 °F 89.6 °F 71.6 °F 66% 30.06 in 10.0 mi South 4.6 mph - N/A   Scattered Clouds
11:46 AM 87.8 °F 92.6 °F 69.8 °F 55% 30.06 in 10.0 mi East 3.5 mph - N/A   Scattered Clouds
12:50 PM 91.4 °F 95.4 °F 68.0 °F 46% 30.03 in 10.0 mi South 4.6 mph - N/A   Scattered Clouds
1:47 PM 91.4 °F 94.0 °F 66.2 °F 43% 30.00 in 10.0 mi SE 3.5 mph - N/A   Scattered Clouds
2:48 PM 95.0 °F 98.5 °F 66.2 °F 39% 29.97 in 10.0 mi Variable 4.6 mph - N/A   Scattered Clouds
3:46 PM 95.0 °F 97.0 °F 64.4 °F 36% 29.94 in 10.0 mi East 5.8 mph - N/A   Partly Cloudy
4:46 PM 96.8 °F 99.0 °F 64.4 °F 34% 29.91 in 10.0 mi Variable 4.6 mph - N/A   Scattered Clouds
5:47 PM 93.2 °F 96.2 °F 66.2 °F 41% 29.94 in 10.0 mi SSE 20.7 mph 34.5 mph N/A   Mostly Cloudy
6:46 PM 82.4 °F 86.3 °F 69.8 °F 66% 29.99 in 10.0 mi SSE 13.8 mph 21.9 mph N/A   Mostly Cloudy
7:47 PM 80.6 °F 83.9 °F 69.8 °F 70% 29.99 in 10.0 mi SSE 10.4 mph - N/A   Clear
8:46 PM 78.8 °F - 69.8 °F 74% 29.97 in 10.0 mi South 4.6 mph - N/A   Clear
9:47 PM 75.2 °F - 71.6 °F 89% 29.99 in 10.0 mi Calm Calm - N/A   Clear
10:15 PM 77.0 °F - 71.6 °F 83% 29.99 in 10.0 mi SE 3.5 mph - N/A   Clear
10:35 PM 77.0 °F - 71.6 °F 83% 29.99 in 10.0 mi SSE 3.5 mph - N/A   Clear
10:55 PM 77.0 °F - 71.6 °F 83% 30.00 in 10.0 mi Calm Calm - N/A   Clear
11:15 PM 75.2 °F - 71.6 °F 89% 30.00 in 10.0 mi Calm Calm - N/A   Clear
11:35 PM 75.2 °F - 71.6 °F 89% 30.00 in 10.0 mi Calm Calm - N/A   Clear
11:55 PM 75.2 °F - 71.6 °F 89% 29.99 in 10.0 mi SSW 5.8 mph - N/A   Clear